UAL300 KSFO-PHNL

Flight info

Callsign UAL300
Flight time N/A
Altitude 40000
Route GNNRR3 BEBOP R464 BITTA INOYI1
Aircraft B772/H-SDE2E3FGHIJ5LORVWXY/LB1D1

Departure

Time 2026-05-05 22:26
Airport San Francisco International Airport (KSFO)

Arrival

Time N/A
Airport Daniel K. Inouye International Airport (PHNL)
Time Latitude Longitude Altitude Speed Heading
2026-05-05 21:38 37.62088 -122.38767 25 ft 0 kts 207°
2026-05-05 22:06 37.62101 -122.38758 25 ft 4 kts 207°
2026-05-05 22:06 37.62125 -122.38742 30 ft 4 kts 207°
2026-05-05 22:06 37.62146 -122.38729 30 ft 1 kts 207°
2026-05-05 22:07 37.62168 -122.38717 30 ft 4 kts 182°
2026-05-05 22:07 37.62186 -122.38726 30 ft 3 kts 118°
2026-05-05 22:07 37.62198 -122.38755 25 ft 3 kts 118°
2026-05-05 22:07 37.62200 -122.38760 30 ft 0 kts 118°
2026-05-05 22:13 37.62198 -122.38755 30 ft 4 kts 117°
2026-05-05 22:13 37.62180 -122.38712 30 ft 3 kts 117°
2026-05-05 22:20 37.62172 -122.38691 30 ft 6 kts 118°
2026-05-05 22:20 37.62125 -122.38581 30 ft 21 kts 117°
2026-05-05 22:20 37.62055 -122.38412 30 ft 22 kts 117°
2026-05-05 22:21 37.61983 -122.38243 29 ft 22 kts 118°
2026-05-05 22:21 37.61913 -122.38076 28 ft 22 kts 117°
2026-05-05 22:21 37.61843 -122.37907 28 ft 22 kts 116°
2026-05-05 22:21 37.61787 -122.37730 28 ft 22 kts 111°
2026-05-05 22:22 37.61732 -122.37552 29 ft 22 kts 111°
2026-05-05 22:22 37.61664 -122.37381 30 ft 22 kts 117°
2026-05-05 22:22 37.61593 -122.37212 30 ft 22 kts 118°
2026-05-05 22:22 37.61522 -122.37043 26 ft 22 kts 117°
2026-05-05 22:23 37.61439 -122.36885 30 ft 22 kts 132°
2026-05-05 22:23 37.61346 -122.36735 25 ft 22 kts 117°
2026-05-05 22:23 37.61276 -122.36566 29 ft 22 kts 117°
2026-05-05 22:23 37.61205 -122.36397 27 ft 22 kts 118°
2026-05-05 22:24 37.61135 -122.36231 27 ft 22 kts 118°
2026-05-05 22:24 37.61069 -122.36076 29 ft 10 kts 118°
2026-05-05 22:24 37.61051 -122.35993 26 ft 10 kts 88°
2026-05-05 22:24 37.61080 -122.35916 29 ft 10 kts 44°
2026-05-05 22:25 37.61138 -122.35877 30 ft 8 kts 27°
2026-05-05 22:25 37.61175 -122.35862 29 ft 3 kts 348°
2026-05-05 22:25 37.61187 -122.35878 28 ft 3 kts 302°
2026-05-05 22:25 37.61188 -122.35881 28 ft 0 kts 302°
2026-05-05 22:26 37.61210 -122.35929 30 ft 29 kts 297°
2026-05-05 22:26 37.61426 -122.36446 27 ft 103 kts 298°
2026-05-05 22:26 37.61870 -122.37494 53 ft 163 kts 297°
2026-05-05 22:26 37.62416 -122.38759 855 ft 163 kts 296°
2026-05-05 22:27 37.62936 -122.40019 1718 ft 162 kts 297°
2026-05-05 22:27 37.63490 -122.41325 2000 ft 178 kts 298°
2026-05-05 22:27 37.64126 -122.42777 2162 ft 201 kts 298°
2026-05-05 22:27 37.64831 -122.44382 2358 ft 222 kts 299°
2026-05-05 22:28 37.65626 -122.46172 2584 ft 242 kts 300°
2026-05-05 22:28 37.66466 -122.48053 3157 ft 252 kts 300°
2026-05-05 22:28 37.67180 -122.50094 3521 ft 260 kts 279°
2026-05-05 22:28 37.66995 -122.52372 4056 ft 263 kts 253°
2026-05-05 22:29 37.66404 -122.54587 4597 ft 269 kts 253°
2026-05-05 22:29 37.65820 -122.56841 5243 ft 272 kts 254°
2026-05-05 22:29 37.65226 -122.59132 5898 ft 276 kts 255°
2026-05-05 22:29 37.64623 -122.61453 6501 ft 281 kts 255°
2026-05-05 22:30 37.64010 -122.63813 7074 ft 285 kts 256°
2026-05-05 22:30 37.63388 -122.66203 7689 ft 288 kts 256°
2026-05-05 22:30 37.62759 -122.68620 8320 ft 292 kts 256°
2026-05-05 22:30 37.62129 -122.71043 8926 ft 296 kts 256°
2026-05-05 22:31 37.61485 -122.73522 9567 ft 299 kts 256°
2026-05-05 22:31 37.60823 -122.76064 10176 ft 304 kts 256°
2026-05-05 22:31 37.60156 -122.78640 10406 ft 324 kts 256°
2026-05-05 22:31 37.59433 -122.81442 10573 ft 348 kts 256°
2026-05-05 22:32 37.58663 -122.84409 11013 ft 363 kts 256°
2026-05-05 22:32 37.57863 -122.87473 11668 ft 371 kts 256°
2026-05-05 22:32 37.57047 -122.90584 12551 ft 375 kts 255°
2026-05-05 22:32 37.56224 -122.93713 13543 ft 377 kts 255°
2026-05-05 22:33 37.55394 -122.96874 14376 ft 382 kts 256°
2026-05-05 22:33 37.54553 -123.00075 15139 ft 386 kts 255°
2026-05-05 22:33 37.53701 -123.03314 15937 ft 391 kts 255°
2026-05-05 22:33 37.52843 -123.06576 16717 ft 395 kts 255°
2026-05-05 22:34 37.51971 -123.09889 17485 ft 400 kts 255°
2026-05-05 22:34 37.51089 -123.13235 18225 ft 405 kts 255°
2026-05-05 22:34 37.50193 -123.16629 18865 ft 410 kts 255°
2026-05-05 22:34 37.49289 -123.20050 19509 ft 414 kts 255°
2026-05-05 22:35 37.48374 -123.23509 20122 ft 419 kts 255°
2026-05-05 22:35 37.47446 -123.27012 20698 ft 425 kts 255°
2026-05-05 22:35 37.46516 -123.30516 21270 ft 430 kts 255°
2026-05-05 22:35 37.45560 -123.34115 21865 ft 435 kts 255°
2026-05-05 22:36 37.44595 -123.37741 22449 ft 440 kts 255°
2026-05-05 22:36 37.43614 -123.41424 23054 ft 446 kts 254°
2026-05-05 22:36 37.42624 -123.45135 23652 ft 451 kts 254°
2026-05-05 22:36 37.41617 -123.48903 24153 ft 456 kts 254°
2026-05-05 22:37 37.40598 -123.52708 24647 ft 462 kts 254°
2026-05-05 22:37 37.39567 -123.56556 25122 ft 467 kts 254°
2026-05-05 22:37 37.38523 -123.60447 25595 ft 472 kts 254°
2026-05-05 22:37 37.37465 -123.64381 26059 ft 478 kts 253°
2026-05-05 22:38 37.36393 -123.68364 26500 ft 483 kts 253°
2026-05-05 22:38 37.35313 -123.72368 26965 ft 487 kts 253°
2026-05-05 22:38 37.34217 -123.76422 27424 ft 491 kts 253°
2026-05-05 22:38 37.33113 -123.80505 27827 ft 496 kts 253°
2026-05-05 22:39 37.32010 -123.84577 28226 ft 501 kts 253°
2026-05-05 22:39 37.30881 -123.88737 28612 ft 506 kts 253°
2026-05-05 22:39 37.29736 -123.92949 29011 ft 510 kts 253°
2026-05-05 22:39 37.28585 -123.97178 29402 ft 513 kts 252°
2026-05-05 22:40 37.27426 -124.01430 29844 ft 516 kts 252°
2026-05-05 22:40 37.26255 -124.05714 30219 ft 520 kts 252°
2026-05-05 22:40 37.25077 -124.10020 30521 ft 523 kts 252°
2026-05-05 22:40 37.23891 -124.14351 30843 ft 526 kts 252°
2026-05-05 22:41 37.22698 -124.18699 31192 ft 528 kts 252°
2026-05-05 22:41 37.21514 -124.23006 31515 ft 530 kts 252°
2026-05-05 22:41 37.20310 -124.27378 31862 ft 531 kts 252°
2026-05-05 22:41 37.19099 -124.31771 32168 ft 533 kts 252°
2026-05-05 22:42 37.17883 -124.36172 32426 ft 535 kts 252°
2026-05-05 22:42 37.16660 -124.40593 32667 ft 538 kts 252°
2026-05-05 22:42 37.15430 -124.45030 32934 ft 540 kts 252°
2026-05-05 22:42 37.14197 -124.49473 33260 ft 539 kts 252°
2026-05-05 22:43 37.12964 -124.53906 33685 ft 537 kts 252°
2026-05-05 22:43 37.11731 -124.58329 34097 ft 536 kts 252°
2026-05-05 22:43 37.10503 -124.62731 34406 ft 535 kts 252°
2026-05-05 22:43 37.09276 -124.67120 34707 ft 535 kts 252°
2026-05-05 22:44 37.08045 -124.71520 35028 ft 534 kts 252°
2026-05-05 22:44 37.06817 -124.75901 35350 ft 532 kts 252°
2026-05-05 22:44 37.05591 -124.80267 35685 ft 531 kts 252°
2026-05-05 22:44 37.04366 -124.84622 36000 ft 530 kts 252°
2026-05-05 22:45 37.03139 -124.88977 36299 ft 529 kts 252°
2026-05-05 22:45 37.01915 -124.93318 36574 ft 529 kts 252°
2026-05-05 22:45 37.00707 -124.97597 36861 ft 528 kts 252°
2026-05-05 22:45 36.99487 -125.01923 37139 ft 527 kts 252°
2026-05-05 22:46 36.98300 -125.06249 37436 ft 525 kts 253°
2026-05-05 22:46 36.97137 -125.10574 37705 ft 524 kts 253°
2026-05-05 22:46 36.95981 -125.14901 37952 ft 524 kts 253°
2026-05-05 22:46 36.94822 -125.19241 38056 ft 526 kts 253°
2026-05-05 22:47 36.93660 -125.23572 38105 ft 526 kts 253°
2026-05-05 22:47 36.91315 -125.32242 38107 ft 523 kts 252°
2026-05-05 22:48 36.88993 -125.40772 38114 ft 521 kts 252°
2026-05-05 22:48 36.86657 -125.49319 38119 ft 520 kts 252°
2026-05-05 22:49 36.84316 -125.57864 38124 ft 519 kts 252°
2026-05-05 22:49 36.81972 -125.66393 38125 ft 520 kts 252°
2026-05-05 22:50 36.79618 -125.74932 38124 ft 520 kts 252°
2026-05-05 22:50 36.77257 -125.83468 38126 ft 520 kts 252°
2026-05-05 22:51 36.74906 -125.91938 38130 ft 520 kts 252°
2026-05-05 22:51 36.72530 -126.00475 38136 ft 523 kts 252°
2026-05-05 22:52 36.70118 -126.09115 38139 ft 531 kts 252°
2026-05-05 22:52 36.67664 -126.17876 38137 ft 538 kts 252°
2026-05-05 22:53 36.65175 -126.26730 38107 ft 543 kts 252°
2026-05-05 22:53 36.62674 -126.35593 38133 ft 542 kts 252°
2026-05-05 22:54 36.60181 -126.44405 38134 ft 542 kts 252°
2026-05-05 22:54 36.57671 -126.53248 38131 ft 542 kts 251°
2026-05-05 22:55 36.55155 -126.62086 38135 ft 541 kts 251°
2026-05-05 22:55 36.52640 -126.70888 38142 ft 540 kts 251°
2026-05-05 22:56 36.50121 -126.79681 38138 ft 539 kts 251°
2026-05-05 22:56 36.47603 -126.88443 38143 ft 538 kts 251°
2026-05-05 22:57 36.45079 -126.97191 38147 ft 538 kts 251°
2026-05-05 22:57 36.42544 -127.05923 38150 ft 537 kts 251°
2026-05-05 22:58 36.40002 -127.14654 38158 ft 537 kts 251°
2026-05-05 22:58 36.37458 -127.23368 38159 ft 537 kts 251°
2026-05-05 22:59 36.34911 -127.32071 38154 ft 536 kts 251°
2026-05-05 22:59 36.32790 -127.39297 38149 ft 536 kts 251°
2026-05-05 23:00 36.28538 -127.53727 38158 ft 535 kts 250°
2026-05-05 23:00 36.26405 -127.60936 38160 ft 535 kts 250°
2026-05-05 23:01 36.23842 -127.69575 38155 ft 535 kts 250°
2026-05-05 23:01 36.21269 -127.78222 38159 ft 534 kts 250°
2026-05-05 23:02 36.18696 -127.86842 38167 ft 533 kts 250°
2026-05-05 23:02 36.16116 -127.95458 38158 ft 533 kts 250°
2026-05-05 23:03 36.13530 -128.04067 38170 ft 532 kts 250°
2026-05-05 23:03 36.10965 -128.12584 38168 ft 531 kts 250°
2026-05-05 23:04 36.08379 -128.21141 38161 ft 531 kts 250°
2026-05-05 23:04 36.05790 -128.29684 38175 ft 530 kts 250°
2026-05-05 23:05 36.03199 -128.38209 38175 ft 529 kts 250°
2026-05-05 23:05 36.00602 -128.46727 38177 ft 529 kts 250°
2026-05-05 23:06 35.98019 -128.55173 38180 ft 528 kts 250°
2026-05-05 23:06 35.95418 -128.63657 38181 ft 528 kts 250°
2026-05-05 23:07 35.92804 -128.72152 38185 ft 528 kts 250°
2026-05-05 23:07 35.90193 -128.80616 38184 ft 528 kts 250°
2026-05-05 23:08 35.87592 -128.89025 38186 ft 527 kts 250°
2026-05-05 23:08 35.84972 -128.97467 38190 ft 526 kts 250°
2026-05-05 23:09 35.82356 -129.05873 38186 ft 525 kts 250°
2026-05-05 23:09 35.79740 -129.14255 38191 ft 524 kts 250°
2026-05-05 23:10 35.77124 -129.22611 38192 ft 522 kts 250°
2026-05-05 23:10 35.74508 -129.30945 38194 ft 521 kts 250°
2026-05-05 23:11 35.71885 -129.39278 38197 ft 520 kts 250°
2026-05-05 23:11 35.69271 -129.47559 38193 ft 519 kts 250°
2026-05-05 23:12 35.66651 -129.55836 38198 ft 518 kts 249°
2026-05-05 23:12 35.64029 -129.64094 38202 ft 517 kts 250°
2026-05-05 23:13 35.61410 -129.72320 38200 ft 516 kts 250°
2026-05-05 23:13 35.58803 -129.80488 38202 ft 516 kts 249°
2026-05-05 23:14 35.56182 -129.88673 38204 ft 515 kts 250°
2026-05-05 23:14 35.53555 -129.96857 38202 ft 514 kts 250°
2026-05-05 23:15 35.50927 -130.05020 38207 ft 514 kts 250°
2026-05-05 23:15 35.48296 -130.13171 38211 ft 513 kts 250°
2026-05-05 23:16 35.45667 -130.21295 38215 ft 512 kts 250°
2026-05-05 23:16 35.43032 -130.29413 38214 ft 511 kts 250°
2026-05-05 23:17 35.40412 -130.37465 38217 ft 510 kts 250°
2026-05-05 23:17 35.37776 -130.45542 38213 ft 509 kts 249°
2026-05-05 23:18 35.35139 -130.53601 38216 ft 509 kts 249°
2026-05-05 23:18 35.32503 -130.61636 38215 ft 508 kts 249°
2026-05-05 23:19 35.29864 -130.69661 38215 ft 508 kts 249°
2026-05-05 23:19 35.27233 -130.77637 38213 ft 508 kts 249°
2026-05-05 23:20 35.24578 -130.85667 38215 ft 508 kts 249°
2026-05-05 23:20 35.21921 -130.93679 38214 ft 508 kts 249°
2026-05-05 23:21 35.17665 -131.06471 38217 ft 507 kts 249°
2026-05-05 23:21 35.12339 -131.22405 38223 ft 506 kts 249°
2026-05-05 23:22 35.07001 -131.38290 38216 ft 504 kts 249°
2026-05-05 23:22 35.01697 -131.53995 38224 ft 502 kts 249°
2026-05-05 23:23 34.96369 -131.69689 38229 ft 500 kts 249°
2026-05-05 23:23 34.91024 -131.85354 38230 ft 499 kts 249°
2026-05-05 23:24 34.85672 -132.00959 38231 ft 498 kts 249°
2026-05-05 23:24 34.80323 -132.16480 38234 ft 497 kts 249°
2026-05-05 23:25 34.74944 -132.32009 38241 ft 497 kts 249°
2026-05-05 23:25 34.69562 -132.47469 38245 ft 495 kts 250°
2026-05-05 23:26 34.64205 -132.62783 38232 ft 495 kts 250°
2026-05-05 23:26 34.58808 -132.78135 38240 ft 492 kts 250°
2026-05-05 23:27 34.53420 -132.93391 38243 ft 491 kts 250°
2026-05-05 23:27 34.48043 -133.08541 38253 ft 491 kts 250°
2026-05-05 23:28 34.42631 -133.23716 38231 ft 490 kts 250°
2026-05-05 23:28 34.37202 -133.38867 38246 ft 489 kts 250°
2026-05-05 23:29 34.31782 -133.53922 38248 ft 487 kts 251°
2026-05-05 23:29 34.26356 -133.68926 38248 ft 485 kts 251°
2026-05-05 23:30 34.20930 -133.83859 38240 ft 484 kts 251°
2026-05-05 23:30 34.15543 -133.98619 38385 ft 484 kts 251°
2026-05-05 23:31 34.12829 -134.06026 38773 ft 480 kts 251°
2026-05-05 23:31 34.10125 -134.13391 39091 ft 479 kts 251°
2026-05-05 23:31 34.07424 -134.20736 39270 ft 479 kts 250°
2026-05-05 23:31 34.04722 -134.28068 39530 ft 477 kts 250°
2026-05-05 23:32 34.02022 -134.35375 39722 ft 477 kts 250°
2026-05-05 23:32 33.99315 -134.42683 39883 ft 477 kts 250°
2026-05-05 23:32 33.96606 -134.49978 40138 ft 475 kts 250°
2026-05-05 23:32 33.93904 -134.57249 40251 ft 477 kts 250°
2026-05-05 23:33 33.88463 -134.71841 40268 ft 479 kts 250°
2026-05-05 23:33 33.82970 -134.86505 40261 ft 480 kts 250°
2026-05-05 23:34 33.77491 -135.01066 40247 ft 480 kts 250°
2026-05-05 23:34 33.71979 -135.15650 40259 ft 479 kts 250°
2026-05-05 23:35 33.66465 -135.30176 40259 ft 477 kts 250°
2026-05-05 23:35 33.60949 -135.44646 40253 ft 476 kts 250°
2026-05-05 23:36 33.55426 -135.59072 40259 ft 475 kts 249°
2026-05-05 23:36 33.49889 -135.73471 40263 ft 475 kts 249°
2026-05-05 23:37 33.44348 -135.87821 40265 ft 474 kts 249°
2026-05-05 23:37 33.38816 -136.02085 40263 ft 474 kts 249°
2026-05-05 23:38 33.33239 -136.16404 40269 ft 474 kts 249°
2026-05-05 23:38 33.27652 -136.30690 40271 ft 474 kts 249°
2026-05-05 23:39 33.22047 -136.44961 40271 ft 474 kts 249°
2026-05-05 23:39 33.16449 -136.59154 40263 ft 474 kts 248°
2026-05-05 23:40 33.10817 -136.73376 40264 ft 474 kts 248°
2026-05-05 23:40 33.05172 -136.87569 40268 ft 473 kts 248°
2026-05-05 23:41 32.99519 -137.01728 40269 ft 473 kts 248°
2026-05-05 23:41 32.93854 -137.15854 40272 ft 472 kts 248°
2026-05-05 23:42 32.88175 -137.29962 40268 ft 472 kts 248°
2026-05-05 23:42 32.82483 -137.44043 40273 ft 472 kts 247°
2026-05-05 23:43 32.76783 -137.58085 40276 ft 472 kts 247°
2026-05-05 23:43 32.71068 -137.72110 40278 ft 472 kts 247°
2026-05-05 23:44 32.65333 -137.86126 40273 ft 472 kts 247°
2026-05-05 23:44 32.59587 -138.00114 40275 ft 472 kts 247°
2026-05-05 23:45 32.53826 -138.14083 40276 ft 472 kts 246°
2026-05-05 23:45 32.48039 -138.28059 40273 ft 472 kts 246°
2026-05-05 23:46 32.42276 -138.41923 40277 ft 472 kts 246°
2026-05-05 23:46 32.36461 -138.55857 40274 ft 471 kts 246°
2026-05-05 23:47 32.31624 -138.67405 40286 ft 471 kts 246°
2026-05-05 23:47 32.25789 -138.81287 40277 ft 471 kts 246°
2026-05-05 23:48 32.18990 -138.97395 40280 ft 470 kts 246°
2026-05-05 23:48 32.14088 -139.08965 40279 ft 470 kts 246°
2026-05-05 23:49 32.08221 -139.22762 40275 ft 470 kts 245°
2026-05-05 23:49 32.02347 -139.36524 40278 ft 469 kts 245°
2026-05-05 23:50 31.96503 -139.50162 40279 ft 469 kts 245°
2026-05-05 23:50 31.90606 -139.63873 40269 ft 469 kts 245°
2026-05-05 23:51 31.84702 -139.77550 40271 ft 468 kts 245°
2026-05-05 23:51 31.78791 -139.91190 40276 ft 468 kts 245°
2026-05-05 23:52 31.72892 -140.04752 40265 ft 468 kts 245°
2026-05-05 23:52 31.66953 -140.18356 40281 ft 468 kts 245°
2026-05-05 23:53 31.60990 -140.31965 40272 ft 468 kts 245°
2026-05-05 23:53 31.55021 -140.45536 40264 ft 468 kts 245°
2026-05-05 23:54 31.49038 -140.59091 40264 ft 468 kts 244°
2026-05-05 23:54 31.43042 -140.72623 40263 ft 468 kts 244°
2026-05-05 23:55 31.37032 -140.86141 40267 ft 468 kts 244°
2026-05-05 23:55 31.31000 -140.99657 40267 ft 468 kts 244°
2026-05-05 23:56 31.24961 -141.13141 40261 ft 468 kts 244°
2026-05-05 23:56 31.18911 -141.26606 40268 ft 467 kts 244°
2026-05-05 23:57 31.12877 -141.39960 40251 ft 467 kts 244°
2026-05-05 23:57 31.06800 -141.53361 40262 ft 467 kts 244°
2026-05-05 23:58 31.00708 -141.66753 40260 ft 467 kts 244°
2026-05-05 23:58 30.94598 -141.80135 40261 ft 467 kts 244°
2026-05-05 23:59 30.88518 -141.93407 40252 ft 467 kts 244°
2026-05-05 23:59 30.82351 -142.06822 40257 ft 467 kts 244°
2026-05-06 00:00 30.76249 -142.20048 40247 ft 467 kts 244°
2026-05-06 00:00 30.70089 -142.33352 40256 ft 467 kts 243°
2026-05-06 00:01 30.63908 -142.46658 40249 ft 467 kts 243°
2026-05-06 00:01 30.57742 -142.59884 40243 ft 466 kts 243°
2026-05-06 00:02 30.51554 -142.73113 40249 ft 465 kts 243°
2026-05-06 00:02 30.45413 -142.86196 40244 ft 465 kts 243°
2026-05-06 00:03 30.39210 -142.99366 40240 ft 466 kts 243°
2026-05-06 00:03 30.32990 -143.12526 40241 ft 466 kts 243°
2026-05-06 00:04 30.26761 -143.25662 40242 ft 465 kts 243°
2026-05-06 00:04 30.20512 -143.38797 40238 ft 465 kts 243°
2026-05-06 00:05 30.11164 -143.58363 40235 ft 465 kts 243°
2026-05-06 00:06 30.04897 -143.71423 40234 ft 464 kts 243°
2026-05-06 00:06 29.98635 -143.84432 40231 ft 463 kts 243°
2026-05-06 00:07 29.92362 -143.97422 40229 ft 462 kts 243°
2026-05-06 00:07 29.86088 -144.10369 40223 ft 462 kts 243°
2026-05-06 00:08 29.79808 -144.23288 40223 ft 461 kts 243°
2026-05-06 00:08 29.73529 -144.36161 40221 ft 461 kts 242°
2026-05-06 00:09 29.67234 -144.49027 40205 ft 461 kts 242°
2026-05-06 00:09 29.60979 -144.61770 40215 ft 460 kts 242°
2026-05-06 00:10 29.54671 -144.74579 40213 ft 460 kts 242°
2026-05-06 00:10 29.48356 -144.87363 40211 ft 459 kts 242°
2026-05-06 00:11 29.42037 -145.00112 40206 ft 459 kts 242°
2026-05-06 00:11 29.35719 -145.12820 40207 ft 459 kts 242°
2026-05-06 00:12 29.29380 -145.25530 40203 ft 459 kts 242°
2026-05-06 00:12 29.23073 -145.38138 40190 ft 459 kts 242°
2026-05-06 00:13 29.16711 -145.50816 40198 ft 459 kts 242°
2026-05-06 00:13 29.10343 -145.63466 40194 ft 459 kts 242°
2026-05-06 00:14 29.03959 -145.76107 40197 ft 459 kts 242°
2026-05-06 00:14 28.97557 -145.88747 40195 ft 460 kts 242°
2026-05-06 00:15 28.91122 -146.01411 40187 ft 460 kts 242°
2026-05-06 00:15 28.84695 -146.14022 40191 ft 459 kts 242°
2026-05-06 00:16 28.78254 -146.26621 40186 ft 459 kts 242°
2026-05-06 00:16 28.71813 -146.39180 40184 ft 459 kts 242°
2026-05-06 00:17 28.65358 -146.51732 40187 ft 459 kts 242°
2026-05-06 00:17 28.58929 -146.64192 40173 ft 459 kts 242°
2026-05-06 00:18 28.52462 -146.76692 40183 ft 458 kts 242°
2026-05-06 00:18 28.45983 -146.89175 40176 ft 458 kts 242°
2026-05-06 00:19 28.39489 -147.01651 40178 ft 458 kts 242°
2026-05-06 00:19 28.32995 -147.14090 40170 ft 458 kts 242°
2026-05-06 00:20 28.26480 -147.26531 40160 ft 458 kts 242°
2026-05-06 00:20 28.19971 -147.38925 40168 ft 458 kts 242°
2026-05-06 00:21 28.13430 -147.51344 40167 ft 459 kts 242°
2026-05-06 00:21 28.06876 -147.63751 40155 ft 459 kts 242°
2026-05-06 00:22 28.00306 -147.76153 40156 ft 459 kts 242°
2026-05-06 00:22 27.93714 -147.88562 40167 ft 460 kts 242°
2026-05-06 00:23 27.87153 -148.00874 40153 ft 459 kts 242°
2026-05-06 00:23 27.80538 -148.13237 40148 ft 459 kts 242°
2026-05-06 00:24 27.73928 -148.25565 40156 ft 458 kts 242°
2026-05-06 00:24 27.67310 -148.37872 40152 ft 458 kts 241°
2026-05-06 00:25 27.60695 -148.50139 40138 ft 458 kts 241°
2026-05-06 00:25 27.54075 -148.62379 40144 ft 457 kts 241°
2026-05-06 00:26 27.47449 -148.74597 40142 ft 457 kts 241°
2026-05-06 00:26 27.40812 -148.86801 40138 ft 457 kts 241°
2026-05-06 00:27 27.34198 -148.98929 40140 ft 457 kts 241°
2026-05-06 00:27 27.27527 -149.11127 40137 ft 458 kts 241°
2026-05-06 00:28 27.20850 -149.23303 40133 ft 457 kts 241°
2026-05-06 00:28 27.14163 -149.35462 40133 ft 457 kts 241°
2026-05-06 00:29 27.07466 -149.47607 40132 ft 458 kts 241°
2026-05-06 00:29 27.00763 -149.59727 40132 ft 457 kts 241°
2026-05-06 00:30 26.94043 -149.71846 40126 ft 457 kts 241°
2026-05-06 00:30 26.87355 -149.83875 40120 ft 457 kts 241°
2026-05-06 00:31 26.80626 -149.95945 40117 ft 457 kts 241°
2026-05-06 00:31 26.73875 -150.08022 40125 ft 457 kts 241°
2026-05-06 00:32 26.67124 -150.20065 40122 ft 456 kts 240°
2026-05-06 00:32 26.60376 -150.32072 40119 ft 456 kts 240°
2026-05-06 00:33 26.54758 -150.42043 40120 ft 456 kts 240°
2026-05-06 00:33 26.46898 -150.55956 40116 ft 455 kts 240°
2026-05-06 00:34 26.40133 -150.67897 40113 ft 454 kts 240°
2026-05-06 00:34 26.34511 -150.77797 40115 ft 454 kts 240°
2026-05-06 00:35 26.27744 -150.89685 40111 ft 454 kts 240°
2026-05-06 00:35 26.20978 -151.01539 40108 ft 453 kts 240°
2026-05-06 00:36 26.14198 -151.13388 40110 ft 453 kts 240°
2026-05-06 00:36 26.07424 -151.25194 40108 ft 452 kts 240°
2026-05-06 00:37 26.00656 -151.36961 40101 ft 451 kts 240°
2026-05-06 00:37 25.93917 -151.48647 40107 ft 451 kts 240°
2026-05-06 00:38 25.87146 -151.60359 40095 ft 450 kts 240°
2026-05-06 00:38 25.80373 -151.72046 40097 ft 449 kts 240°